Location: San Gennaro Vesuviano
(40.8833°N, 14.5333°E)
Time: 22:58:14
(UTC+00:00)

Exosat Rocket - Pass Details

Date: 22 April 2021
Orbit: 760 x 2515 km, 72.3° (Epoch: 10 May)

Event Time Altitude Azimuth Distance (km) Brightness Sun altitude
Rises 18:50:59 0° 337° (NNW) 3,897 8.0 -11.6°
Reaches altitude 10° 18:53:53 10° 338° (NNW) 2,740 7.1 -12.1°
Maximum altitude 18:59:53 89° 252° (WSW) 827 3.6 -13.1°
Enters shadow 19:04:31 12° 160° (SSE) 2,150 5.4 -13.9°
